Overview Statistics Trail Chart Weather Telemetry Raw packets
 

This is the latest recevied weather packets stored in our database for station/object IZ7EXI-13. If no packets are shown the sender has not sent any weather packets the latest 10 day(s).

<< 37 38 39 40 41 42 43 >>
Time Temp. Humidity Pressure Rain* Wind** Luminosity Snow
1787960080 32.78° C 24% 1015 hPa - - - -
1787959179 32.78° C 25% 1015.3 hPa - - - -
1787958315 32.22° C 25% 1015.3 hPa - - - -
1787958279 32.22° C 25% 1015.3 hPa - - - -
1787957379 32.22° C 25% 1015.2 hPa - - - -
1787956479 32.22° C 26% 1015 hPa - - - -
1787955578 32.22° C 26% 1015.1 hPa - - - -
1787954678 31.67° C 28% 1015.2 hPa - - - -
1787953778 31.67° C 31% 1015.3 hPa - - - -
1787952878 31.67° C 33% 1015.4 hPa - - - -
1787951978 32.22° C 36% 1015.5 hPa - - - -
1787951077 31.67° C 38% 1015.6 hPa - - - -
1787950177 32.78° C 34% 1015.5 hPa - - - -
1787949277 32.78° C 40% 1015.7 hPa - - - -
1787948377 33.89° C 39% 1015.7 hPa - - - -
1787947476 32.78° C 45% 1015.9 hPa - - - -
1787946612 31.67° C 56% 1016.1 hPa - - - -
1787946576 31.67° C 56% 1016.1 hPa - - - -
1787945676 31.67° C 53% 1016.1 hPa - - - -
1787944776 31.67° C 53% 1016 hPa - - - -
1787943872 32.22° C 46% 1015.9 hPa - - - -
1787942971 33.33° C 38% 1015.7 hPa - - - -
1787942102 35° C 33% 1015.4 hPa - - - -
1787942071 35° C 33% 1015.4 hPa - - - -
1787941171 35° C 31% 1015.1 hPa - - - -

* Rain since midnight (hover to see other rain measurements)
** Current wind speed in m/s (hover to see current wind gust speed)